Windsor Locks, CT

2:21 AM EDT on May 27, 2017 (GMT -0400)
Bradley International

Weather History for KBDL - March, 2014

Change the Weather History Date:

Sunday, March 2, 2014

  Actual Average Record
Temperature  
Mean Temperature 31 °F 33 °F  
Max Temperature 37 °F 43 °F 64 °F (2004)
Min Temperature 25 °F 24 °F 4 °F (1962)
Degree Days  
Heating Degree Days 34 32  
Month to date heating degree days 82 64  
Since 1 July heating degree days 4761 4502  
Cooling Degree Days 0 0  
Month to date cooling degree days 0 0  
Year to date cooling degree days 0 0  
Moisture  
Dew Point 17 °F    
Average Humidity 56    
Maximum Humidity 69    
Minimum Humidity 43    
Precipitation  
Precipitation T in 0.11 in 1.85 in (2007)
Month to date precipitation T 0.22  
Year to date precipitation 7.37 6.34  
Snow  
Snow T in 0.20 in 7.90 in (2009)
Month to date snowfall T 0.5  
Since 1 July snowfall 50.1 33.2  
Snow Depth 10.00 in    
Sea Level Pressure  
Sea Level Pressure 30.04 in    
Wind  
Wind Speed 7 mph (WNW)    
Max Wind Speed 17 mph    
Max Gust Speed 23 mph    
Visibility 10 miles    
Events Snow    
T = Trace of Precipitation, MM = Missing Value Source: NWS Daily Summary

Daily Weather History Graph

Daily Weather History Graph

Search for Another Location

Airport or City:

Trip Planner

Search our weather history database for the weather conditions in past years. The results will help you decide how hot, cold, wet, or windy it might be!

Date:

Astronomy

Mar. 02, 2014 Rise Set
Actual Time 6:24 AM EST 5:42 PM EST
Civil Twilight 5:56 AM EST 6:10 PM EST
Nautical Twilight 5:23 AM EST 6:42 PM EST
Astronomical Twilight 4:51 AM EST 7:14 PM EST
Moon 6:51 AM EST (3/2) 7:37 PM EST (3/2)
Length of Visible Light 12h 13m
Length of Day
11h 17m
Waxing Crescent, 3% of the Moon is Illuminated
Mar 2
Waxing Crescent
Mar 8
First Quarter
Mar 16
Full
Mar 23
Last Quarter
Mar 30
New

Hourly Weather History & Observations

Time (EST) Temp. Windchill Dew Point Humidity Pressure Visibility Wind Dir Wind Speed Gust Speed Precip Events Conditions
12:51 AM 30.9 °F 22.2 °F 19.9 °F 64% 30.09 in 10.0 mi South 10.4 mph - N/A   Mostly Cloudy
1:51 AM 30.0 °F 22.4 °F 21.0 °F 69% 30.07 in 10.0 mi SSE 8.1 mph - N/A   Mostly Cloudy
2:51 AM 30.9 °F 23.5 °F 18.0 °F 59% 30.05 in 10.0 mi South 8.1 mph - N/A   Mostly Cloudy
3:51 AM 32.0 °F 25.6 °F 17.1 °F 54% 30.04 in 10.0 mi SSW 6.9 mph - N/A   Overcast
4:51 AM 30.9 °F 26.2 °F 19.0 °F 61% 30.05 in 10.0 mi SSW 4.6 mph - N/A   Overcast
5:51 AM 30.9 °F 27.5 °F 19.9 °F 64% 30.06 in 10.0 mi South 3.5 mph - N/A   Overcast
6:51 AM 30.9 °F - 19.0 °F 61% 30.05 in 9.0 mi Calm Calm - 0.00 in Snow Light Snow
7:51 AM 30.9 °F 27.5 °F 19.9 °F 64% 30.06 in 10.0 mi SSW 3.5 mph - 0.00 in   Overcast
8:51 AM 32.0 °F 28.7 °F 19.0 °F 59% 30.07 in 10.0 mi WSW 3.5 mph - N/A   Overcast
9:51 AM 33.1 °F 26.1 °F 19.9 °F 59% 30.07 in 10.0 mi WNW 8.1 mph - N/A   Overcast
10:51 AM 33.1 °F 26.1 °F 19.9 °F 59% 30.06 in 10.0 mi NNW 8.1 mph - N/A   Overcast
11:51 AM 34.0 °F 28.0 °F 19.0 °F 54% 30.04 in 10.0 mi North 6.9 mph - N/A   Mostly Cloudy
12:51 PM 36.0 °F 29.6 °F 19.0 °F 50% 30.01 in 10.0 mi NNW 8.1 mph - N/A   Mostly Cloudy
1:51 PM 37.0 °F 31.0 °F 18.0 °F 46% 29.99 in 10.0 mi NNW 8.1 mph - N/A   Overcast
2:51 PM 36.0 °F 29.6 °F 19.0 °F 50% 29.99 in 10.0 mi NW 8.1 mph - N/A   Overcast
3:51 PM 35.1 °F 27.9 °F 17.1 °F 48% 29.99 in 10.0 mi NW 9.2 mph - N/A   Overcast
4:51 PM 34.0 °F 26.0 °F 15.1 °F 46% 30.01 in 10.0 mi NNW 10.4 mph - N/A   Overcast
5:51 PM 32.0 °F 23.6 °F 14.0 °F 48% 30.02 in 10.0 mi NNW 10.4 mph - N/A   Mostly Cloudy
6:51 PM 30.9 °F 25.2 °F 14.0 °F 50% 30.04 in 10.0 mi NNW 5.8 mph - N/A   Mostly Cloudy
7:51 PM 30.0 °F 21.7 °F 10.9 °F 45% 30.03 in 10.0 mi North 9.2 mph - N/A   Overcast
8:51 PM 28.9 °F 19.2 °F 10.9 °F 47% 30.03 in 10.0 mi NNW 11.5 mph 17.3 mph N/A   Overcast
9:51 PM 27.0 °F 19.5 °F 10.0 °F 49% 30.02 in 10.0 mi North 6.9 mph - N/A   Overcast
10:51 PM 27.0 °F 18.0 °F 10.0 °F 49% 30.04 in 10.0 mi NW 9.2 mph - N/A   Overcast
11:51 PM 26.1 °F 16.2 °F 9.0 °F 49% 30.03 in 10.0 mi NNW 10.4 mph - N/A   Overcast